When you browse on this site, cookies collect data to enhance your experience and personalize the content and advertising you see.
Visit our Privacy Policy to learn more. By continuing to use the site, you agree to this use of cookies and data.
  • In Hungary
  • List of Countries
  • For 7 days
  • Water Temperature
  • Weather Map
  • News
  • Weather Widgets
  • user-avatar
    Login

    Hourly Weather Uglovoy

    Today, 15 October, Tuesday

    Time Temperature Precipitation Wind Pressure Humidity
    00:00 +7°C° 0 mm 3 mps 758 mmHg 88%
    01:00 +7°C° 1.1 mm 4 mps 757 mmHg 90%
    02:00 +7°C° 1.1 mm 4 mps 756 mmHg 92%
    03:00 +8°C° 1.1 mm 5 mps 756 mmHg 93%
    04:00 +9°C° 1.4 mm 6 mps 754 mmHg 93%
    05:00 +10°C° 1.4 mm 7 mps 753 mmHg 92%
    06:00 +11°C° 1.4 mm 8 mps 752 mmHg 91%
    07:00 +12°C° 0.1 mm 8 mps 752 mmHg 89%
    08:00 +12°C° 0.1 mm 8 mps 752 mmHg 86%
    09:00 +14°C° 0.1 mm 7 mps 751 mmHg 84%
    10:00 +15°C° 0 mm 8 mps 751 mmHg 80%
    11:00 +15°C° 0 mm 8 mps 751 mmHg 77%
    12:00 +16°C° 0 mm 8 mps 751 mmHg 73%
    13:00 +16°C° 0.3 mm 8 mps 752 mmHg 72%
    14:00 +16°C° 0.3 mm 8 mps 752 mmHg 71%
    15:00 +15°C° 0.3 mm 7 mps 753 mmHg 70%
    16:00 +14°C° 0.1 mm 7 mps 753 mmHg 75%
    17:00 +11°C° 0.1 mm 6 mps 754 mmHg 79%
    18:00 +10°C° 0.1 mm 5 mps 755 mmHg 84%
    19:00 +9°C° 0 mm 5 mps 756 mmHg 84%
    20:00 +8°C° 0 mm 5 mps 757 mmHg 84%
    21:00 +7°C° 0 mm 5 mps 758 mmHg 85%
    22:00 +7°C° 0 mm 4 mps 758 mmHg 83%
    23:00 +6°C° 0 mm 4 mps 759 mmHg 81%

    Tomorrow, 16 October, Wednesday

    Time Temperature Precipitation Wind Pressure Humidity
    00:00 +6°C° 0 mm 4 mps 759 mmHg 80%
    01:00 +5°C° 0 mm 4 mps 760 mmHg 79%
    02:00 +3°C° 0 mm 5 mps 761 mmHg 79%
    03:00 +2°C° 0 mm 5 mps 762 mmHg 78%
    04:00 +2°C° 0 mm 5 mps 762 mmHg 75%
    05:00 +2°C° 0 mm 5 mps 763 mmHg 72%
    06:00 +3°C° 0 mm 4 mps 763 mmHg 69%
    07:00 +3°C° 0 mm 5 mps 764 mmHg 70%
    08:00 +3°C° 0 mm 5 mps 764 mmHg 72%
    09:00 +3°C° 0 mm 5 mps 765 mmHg 73%
    10:00 +5°C° 0 mm 5 mps 765 mmHg 71%
    11:00 +5°C° 0 mm 5 mps 766 mmHg 68%
    12:00 +6°C° 0 mm 5 mps 766 mmHg 65%
    13:00 +5°C° 0 mm 4 mps 766 mmHg 66%
    14:00 +5°C° 0 mm 4 mps 767 mmHg 66%
    15:00 +5°C° 0 mm 4 mps 767 mmHg 66%
    16:00 +4°C° 0 mm 3 mps 767 mmHg 71%
    17:00 +5°C° 0 mm 2 mps 767 mmHg 75%
    18:00 +4°C° 0 mm 2 mps 768 mmHg 79%
    19:00 +4°C° 0 mm 1 mps 768 mmHg 81%
    20:00 +4°C° 0 mm 1 mps 768 mmHg 82%
    21:00 +3°C° 0 mm 0 mps 768 mmHg 84%
    22:00 +2°C° 0 mm 0 mps 768 mmHg 85%
    23:00 +2°C° 0 mm 0 mps 768 mmHg 85%

    Day after tomorrow, 17 October, Thursday

    Time Temperature Precipitation Wind Pressure Humidity
    00:00 +2°C° 0 mm 0 mps 768 mmHg 86%
    01:00 +2°C° 0 mm 0 mps 768 mmHg 87%
    02:00 +3°C° 0 mm 1 mps 769 mmHg 87%
    03:00 +3°C° 0 mm 1 mps 769 mmHg 87%
    04:00 +3°C° 0 mm 1 mps 769 mmHg 87%
    05:00 +3°C° 0 mm 1 mps 768 mmHg 87%
    06:00 +2°C° 0 mm 2 mps 768 mmHg 87%
    07:00 +2°C° 0 mm 3 mps 768 mmHg 84%
    08:00 +3°C° 0 mm 4 mps 768 mmHg 80%
    09:00 +2°C° 0 mm 5 mps 767 mmHg 76%
    10:00 +3°C° 0 mm 5 mps 767 mmHg 72%
    11:00 +4°C° 0 mm 6 mps 766 mmHg 68%
    12:00 +5°C° 0 mm 6 mps 765 mmHg 64%
    13:00 +7°C° 0 mm 6 mps 765 mmHg 61%
    14:00 +7°C° 0 mm 6 mps 764 mmHg 59%
    15:00 +8°C° 0 mm 6 mps 764 mmHg 57%
    16:00 +7°C° 0 mm 6 mps 763 mmHg 58%
    17:00 +7°C° 0 mm 6 mps 762 mmHg 60%
    18:00 +5°C° 0 mm 6 mps 762 mmHg 61%
    19:00 +5°C° 0 mm 6 mps 762 mmHg 61%
    20:00 +5°C° 0 mm 6 mps 761 mmHg 60%
    21:00 +5°C° 0 mm 6 mps 761 mmHg 60%
    22:00 +5°C° 0 mm 6 mps 760 mmHg 61%
    23:00 +5°C° 0 mm 6 mps 760 mmHg 61%

    18 October, Friday

    Time Temperature Precipitation Wind Pressure Humidity
    00:00 +5°C° 0 mm 6 mps 759 mmHg 62%
    01:00 +5°C° 0 mm 6 mps 759 mmHg 65%
    02:00 +6°C° 0 mm 5 mps 758 mmHg 67%
    03:00 +6°C° 0 mm 5 mps 758 mmHg 70%
    04:00 +6°C° 0 mm 5 mps 758 mmHg 74%
    05:00 +6°C° 0 mm 4 mps 758 mmHg 78%
    06:00 +6°C° 0 mm 4 mps 758 mmHg 82%
    07:00 +6°C° 0.2 mm 4 mps 758 mmHg 85%
    08:00 +6°C° 0.2 mm 4 mps 758 mmHg 88%
    09:00 +7°C° 0.2 mm 3 mps 759 mmHg 91%
    10:00 +6°C° 0.1 mm 4 mps 759 mmHg 84%
    11:00 +6°C° 0.1 mm 4 mps 760 mmHg 77%
    12:00 +5°C° 0.1 mm 5 mps 760 mmHg 70%
    13:00 +5°C° 0.2 mm 4 mps 761 mmHg 70%
    14:00 +5°C° 0.2 mm 4 mps 761 mmHg 69%
    15:00 +5°C° 0.2 mm 4 mps 762 mmHg 68%
    16:00 +4°C° 0 mm 4 mps 762 mmHg 71%
    17:00 +3°C° 0 mm 4 mps 763 mmHg 73%
    18:00 +3°C° 0 mm 4 mps 763 mmHg 76%
    19:00 +1°C° 0 mm 4 mps 764 mmHg 78%
    20:00 0°C° 0 mm 4 mps 764 mmHg 79%
    21:00 0°C° 0 mm 4 mps 765 mmHg 81%
    22:00 0°C° 0 mm 3 mps 765 mmHg 82%
    23:00 0°C° 0 mm 3 mps 766 mmHg 82%

    19 October, Saturday

    Time Temperature Precipitation Wind Pressure Humidity
    00:00 -1°C° 0 mm 3 mps 766 mmHg 83%
    01:00 -1°C° 0 mm 3 mps 767 mmHg 83%
    02:00 -1°C° 0 mm 3 mps 767 mmHg 82%
    03:00 -1°C° 0 mm 3 mps 768 mmHg 82%
    04:00 -1°C° 0 mm 3 mps 768 mmHg 82%
    05:00 -1°C° 0 mm 3 mps 768 mmHg 82%
    06:00 -2°C° 0 mm 3 mps 769 mmHg 83%
    07:00 -1°C° 0 mm 3 mps 769 mmHg 78%
    08:00 0°C° 0 mm 3 mps 770 mmHg 73%
    09:00 0°C° 0 mm 4 mps 770 mmHg 68%
    10:00 +2°C° 0 mm 3 mps 770 mmHg 64%
    11:00 +3°C° 0 mm 3 mps 770 mmHg 59%
    12:00 +4°C° 0 mm 3 mps 770 mmHg 54%
    13:00 +4°C° 0 mm 3 mps 770 mmHg 54%
    14:00 +5°C° 0 mm 2 mps 770 mmHg 55%
    15:00 +5°C° 0 mm 2 mps 770 mmHg 55%
    16:00 +4°C° 0 mm 2 mps 770 mmHg 61%
    17:00 +3°C° 0 mm 2 mps 770 mmHg 66%
    18:00 +2°C° 0 mm 2 mps 771 mmHg 72%
    19:00 +2°C° 0 mm 2 mps 771 mmHg 73%
    20:00 +1°C° 0 mm 2 mps 771 mmHg 74%
    21:00 +1°C° 0 mm 2 mps 771 mmHg 76%
    22:00 +1°C° 0 mm 2 mps 771 mmHg 76%
    23:00 +1°C° 0 mm 2 mps 771 mmHg 77%

    20 October, Sunday

    Time Temperature Precipitation Wind Pressure Humidity
    00:00 +1°C° 0 mm 1 mps 771 mmHg 77%
    01:00 +1°C° 0 mm 1 mps 771 mmHg 77%
    02:00 +1°C° 0 mm 1 mps 771 mmHg 77%
    03:00 +1°C° 0 mm 1 mps 771 mmHg 77%
    04:00 +1°C° 0 mm 1 mps 771 mmHg 78%
    05:00 +1°C° 0 mm 1 mps 772 mmHg 78%
    06:00 +1°C° 0 mm 1 mps 772 mmHg 79%
    07:00 +2°C° 0 mm 1 mps 772 mmHg 74%
    08:00 +2°C° 0 mm 2 mps 772 mmHg 69%
    09:00 +3°C° 0 mm 2 mps 772 mmHg 65%
    10:00 +4°C° 0 mm 2 mps 772 mmHg 61%
    11:00 +5°C° 0 mm 2 mps 772 mmHg 57%
    12:00 +5°C° 0 mm 3 mps 772 mmHg 53%
    13:00 +6°C° 0 mm 2 mps 772 mmHg 53%
    14:00 +6°C° 0 mm 2 mps 772 mmHg 53%
    15:00 +6°C° 0 mm 2 mps 772 mmHg 54%
    16:00 +5°C° 0 mm 2 mps 772 mmHg 57%
    17:00 +5°C° 0 mm 1 mps 772 mmHg 60%
    18:00 +4°C° 0 mm 1 mps 772 mmHg 63%
    19:00 +4°C° 0 mm 1 mps 772 mmHg 64%
    20:00 +3°C° 0 mm 1 mps 772 mmHg 64%
    21:00 +3°C° 0 mm 1 mps 772 mmHg 64%
    22:00 +3°C° 0 mm 1 mps 772 mmHg 65%
    23:00 +3°C° 0 mm 1 mps 772 mmHg 65%
    Show more